Weather in Nikitkino

Russia / Samara Oblast     54°02′58″N   52°24′23″E
temp.,
°C
wind,
m/s
gust,
m/s
humid.,
%
clouds,
%
prec.,
mm/h
press.,
hPa
HPBL,
m
26 february, fri
fri2601:00−20sse61196100 0.3 1023432
04:00−21sse61197100 0.4 1022397
07:00−20se61196100 0.1 1021419
10:00−18se61195100 0.3 1021443
13:00−17se71094100 0.1 1021492
16:00−16se71194100 0.1 1020498
19:00−18sse61396100 0.1 1017424
22:00−16sse81595100 0.1 1013494
27 february, sat
sat2701:00−14sse101895100 1.4 1007548
04:00−12sse91594100 6.4 1003635
07:00−10sse71294100 1.2 1000406
10:00−7sse5995100 1.9 999283
13:00−3s4597100 0.6 999248
16:000wsw5898100 1.4 999473
19:000sw4898100 1.3 998362
22:00−1ssw4898100 2.6 998338
28 february, sun
sun2801:00−2ssw3798100 0.8 998228
04:00−2ssw2498100 1.7 998125
07:00−3sw0198100 0.7 99921
10:00−8nne589498 1.1 1002205
13:00−9nne589383 0.1 1004285
16:00−11n6109289 0.3 1006357
19:00−15n5109387 0.1 1009273
22:00−18nnw469575 0.1 1012114
1 march, mon
mon101:00−20nnw35979 0.0 101478
04:00−22nnw34975 0.0 101672
07:00−23n34970 0.0 101870
10:00−19n47920 0.0 1021248
13:00−16n47910 0.0 1022289
16:00−15n47900 0.0 1024320
19:00−19n34930 0.0 102435
22:00−21nnw23950 0.0 102620
2 march, tue
tue201:00−22w11980 0.0 102520
04:00−23wsw22980 0.0 102420
07:00−23ssw349734 0.0 102240
10:00−19ssw589659 0.0 1020235
13:00−15ssw61195100 0.0 1017349
16:00−12ssw71294100 0.1 1014460
19:00−12ssw71294100 0.8 1011480
22:00−12ssw61195100 1.2 1010366